Location: Melbourne
(37.8170°S, 144.9670°E)
Time: 13:57:36
(UTC+10:00)

ISS - Visible Passes

Search period start: 25 April 2014 00:00
Search period end: 05 May 2014 00:00
Orbit: 412 x 419 km, 51.6° (Epoch: 24 April)

Date Brightness Start Highest point End Pass type
(mag) Time Alt. Az. Time Alt. Az. Time Alt. Az.
25 Apr -0.6 05:58:02 10° SSW 05:59:47 13° SSE 06:01:31 10° SE visible
26 Apr -0.4 05:10:07 10° S 05:10:43 11° SSE 05:11:29 10° SSE visible
27 Apr -1.3 05:56:26 10° SSW 05:59:14 23° SSE 06:02:01 10° E visible
28 Apr -0.9 05:09:27 16° S 05:10:05 17° SSE 05:12:22 10° ESE visible
29 Apr -2.7 05:55:31 16° SW 05:58:07 54° SE 06:01:25 10° ENE visible
30 Apr -1.8 05:08:42 32° SSE 05:08:54 32° SSE 05:11:58 10° E visible
01 May 0.2 04:21:53 12° ESE 04:21:53 12° ESE 04:22:12 10° E visible
01 May -2.9 05:54:46 25° WSW 05:56:23 48° NW 05:59:37 10° NNE visible
02 May -2.4 05:07:57 48° NE 05:07:57 48° NE 05:10:27 10° NE visible
03 May -1.4 05:54:02 16° NW 05:54:03 16° NW 05:56:14 10° N visible
04 May -0.6 05:07:13 13° NNE 05:07:13 13° NNE 05:07:41 10° NNE visible
